Regional Weather Roundup
Issued by NWS Mt. Holly, NJ

Home | Current Version | Previous Version | Text Only | Print | Product List | Glossary On
Versions: 1 2 3 4 5 6 7 8 9 10 11 12 13 14 15 16 17 18 19 20 21 22 23 24 25 26 27 28
000
ASUS41 KPHI 260712
RWRPHI

REGIONAL WEATHER ROUNDUP
NATIONAL WEATHER SERVICE MOUNT HOLLY NJ
300 AM EDT MON SEP 26 2016

NOTE:  "FAIR" INDICATES FEW OR NO CLOUDS BELOW 12,000 FEET WITH NO
SIGNIFICANT WEATHER AND/OR OBSTRUCTIONS TO VISIBILITY.

 * = STATION DOES NOT REPORT PRECIPITATION (E.G. RAIN, SNOW, ETC.)
        OR FOG.

NJZ015>026-260800-
SOUTHERN NEW JERSEY

CITY           SKY/WX    TMP DP  RH WIND       PRES   REMARKS
POMONA         CLEAR     48  45  89 CALM      30.17F
WILDWOOD*        N/A     52  50  93 CALM      30.16F
MILLVILLE      CLEAR     47  47 100 CALM      30.17F
WRIGHTSTOWN    CLEAR     46  45  94 CALM      30.15F
MOUNT HOLLY    CLEAR     47  45  93 CALM      30.17F
TRENTON        CLEAR     49  46  90 N3        30.17F

$$
NJZ001>014-260800-
NORTHERN NEW JERSEY

CITY           SKY/WX    TMP DP  RH WIND       PRES   REMARKS
SUSSEX         CLEAR     39  39 100 CALM      30.21S
ANDOVER*         N/A     44  42  93 CALM      30.19F
MORRISTOWN     CLEAR     39  39 100 CALM      30.19F
NEWARK         PTCLDY    54  44  69 N6        30.18F
TETERBORO      CLEAR     52  44  74 N6        30.18F
CALDWELL       CLEAR     49  45  86 CALM      30.20F
SOMERVILLE     CLEAR     43  41  93 NW3       30.17F
ALLAIRE*       CLEAR     50  46  86 NW3       30.19F
TOMS RIVER*    CLEAR     42  39  89 CALM      30.18F

$$
PAZ043-044-047-054-055-060>062-066>071-260800-
EASTERN PENNSYLVANIA

CITY           SKY/WX    TMP DP  RH WIND       PRES   REMARKS
PHILADELPHIA   PTCLDY    56  47  71 CALM      30.17F
NORTH PHILA    PTCLDY    51  48  89 NE5       30.18F
BLUE BELL*     CLEAR     43  43 100 CALM      30.16F
DOYLESTOWN     CLEAR     51  43  74 CALM      30.16F
QUAKERTOWN*    CLEAR     41  41 100 MISG      30.18F
PERKASIE*      FAIR      41  41 100 CALM      30.18F
POTTSTOWN      CLEAR     45  43  93 CALM      30.19S
LANCASTER      CLOUDY    50  49  96 CALM      30.16F
COATESVILLE    CLEAR     52  45  76 CALM      30.18S
READING        CLOUDY    49  46  90 CALM      30.17F
ALLENTOWN      CLEAR     44  40  85 N5        30.18F
MOUNT POCONO   CLOUDY    38  34  85 E3        30.18F
HAZLETON       CLOUDY    46  36  66 E5        30.20
LEHIGHTON      FAIR      37  37 100 CALM      30.20F
WILKES BARRE   CLEAR     48  38  68 E12       30.17F

$$
DEZALL-MDZ008-012-015-019-020-260800-
DELAWARE AND EASTERN MARYLAND

CITY           SKY/WX    TMP DP  RH WIND       PRES   REMARKS
WILMINGTON     CLOUDY    53  47  79 N3        30.17F
DOVER          PTCLDY    54  54 100 S3        30.15F
GEORGETOWN     CLEAR     51  50  96 CALM      30.17F
PATUXENT       CLOUDY    64  56  75 S6        30.15F
OCEAN CITY     CLEAR     52  50  93 CALM      30.17F
WALLOPS ISLAND PTCLDY    58  56  93 CALM      30.17F
CAMBRIDGE      CLEAR     52  50  93 CALM      30.16F
SALISBURY      CLEAR     52  51  97 CALM      30.17F

$$
PAZ001-021-NYZ056-072-MDZ011-DCZ001-260800-
OTHER NEARBY LOCATIONS

CITY           SKY/WX    TMP DP  RH WIND       PRES   REMARKS
HARRISBURG     CLOUDY    53  50  89 CALM      30.15F
STATE COLLEGE  CLEAR     46  44  90 CALM      30.13F
WILLIAMSPORT   CLEAR     48  45  89 CALM      30.15F
BINGHAMTON     CLEAR     42  36  79 E6        30.16F
NEW YORK CITY  CLEAR     58  40  51 CALM      30.21F
BALTIMORE      PTCLDY    52  49  89 CALM      30.16F
WASHINGTON DC  MOCLDY    65  54  67 S8        30.16F

$$




USA.gov is the U.S. government's official web portal to all federal, state and local government web resources and services.